Time,TemperatureF,DewpointF,PressureIn,WindDirection,WindDirectionDegrees,WindSpeedMPH,WindSpeedGustMPH,Humidity,HourlyPrecipIn,Conditions,Clouds,dailyrainin,SoftwareType,DateUTC
2013-09-12 00:14:00,70.0,67.0,29.93,NNE,31,0.0,0.0,90,0.00,,,0.00,,2013-09-12 04:14:00,
2013-09-12 00:24:00,69.0,66.0,29.93,NNE,30,0.0,0.0,91,0.00,,,0.00,,2013-09-12 04:24:00,
2013-09-12 00:44:00,70.0,67.0,29.92,NNE,30,0.0,0.0,91,0.00,,,0.00,,2013-09-12 04:44:00,
2013-09-12 00:54:00,70.0,67.0,29.91,NNE,30,0.0,0.0,91,0.00,,,0.00,,2013-09-12 04:54:00,
2013-09-12 01:13:00,70.0,67.0,29.91,NNE,30,0.0,0.0,91,0.00,,,0.00,,2013-09-12 05:13:00,
2013-09-12 01:23:00,70.0,67.0,29.91,NNE,30,0.0,0.0,91,0.00,,,0.00,,2013-09-12 05:23:00,
2013-09-12 01:43:00,70.0,67.0,29.91,WSW,245,0.0,4.0,91,0.00,,,0.00,,2013-09-12 05:43:00,
2013-09-12 01:53:00,70.0,67.0,29.90,SSW,205,0.0,1.0,91,0.00,,,0.00,,2013-09-12 05:53:00,
2013-09-12 02:12:00,71.0,68.0,29.91,SW,214,0.0,1.0,90,0.00,,,0.00,,2013-09-12 06:12:00,
2013-09-12 02:22:00,71.0,68.0,29.90,SW,224,0.0,3.0,89,0.00,,,0.00,,2013-09-12 06:22:00,
2013-09-12 02:42:00,70.0,67.0,29.89,West,263,0.0,1.0,89,0.00,,,0.00,,2013-09-12 06:42:00,
2013-09-12 02:52:00,70.0,67.0,29.89,West,263,0.0,0.0,90,0.00,,,0.00,,2013-09-12 06:52:00,
2013-09-12 03:12:00,70.0,67.0,29.89,WSW,245,0.0,2.0,90,0.00,,,0.00,,2013-09-12 07:12:00,
2013-09-12 03:22:00,70.0,67.0,29.89,SW,224,0.0,3.0,90,0.00,,,0.00,,2013-09-12 07:22:00,
2013-09-12 03:43:00,70.0,67.0,29.89,SW,230,0.0,2.0,90,0.00,,,0.00,,2013-09-12 07:43:00,
2013-09-12 03:52:00,70.0,67.0,29.90,WSW,245,0.0,2.0,89,0.00,,,0.00,,2013-09-12 07:52:00,
2013-09-12 04:11:00,70.0,67.0,29.90,SW,230,0.0,3.0,89,0.00,,,0.00,,2013-09-12 08:11:00,
2013-09-12 04:22:00,70.0,67.0,29.89,West,262,0.0,4.0,89,0.00,,,0.00,,2013-09-12 08:22:00,
2013-09-12 04:52:00,70.0,67.0,29.90,SSW,197,1.0,4.0,90,0.00,,,0.00,,2013-09-12 08:52:00,
2013-09-12 05:12:00,70.0,67.0,29.89,SW,224,1.0,2.0,90,0.00,,,0.00,,2013-09-12 09:12:00,
2013-09-12 05:21:00,70.0,67.0,29.90,West,278,3.0,6.0,91,0.02,,,0.02,,2013-09-12 09:21:00,
2013-09-12 05:53:00,68.0,66.0,29.88,SE,136,0.0,3.0,92,0.09,,,0.09,,2013-09-12 09:53:00,
2013-09-12 06:12:00,67.0,65.0,29.87,SSE,155,0.0,0.0,92,0.09,,,0.09,,2013-09-12 10:12:00,
2013-09-12 06:23:00,67.0,65.0,29.87,WNW,292,0.0,1.0,93,0.06,,,0.09,,2013-09-12 10:23:00,
2013-09-12 06:53:00,67.0,65.0,29.87,SE,139,0.0,0.0,93,0.00,,,0.09,,2013-09-12 10:53:00,
2013-09-12 07:11:00,66.0,64.0,29.87,SW,226,0.0,0.0,93,0.00,,,0.09,,2013-09-12 11:11:00,
2013-09-12 07:22:00,66.0,64.0,29.88,SW,232,0.0,0.0,94,0.00,,,0.09,,2013-09-12 11:22:00,
2013-09-12 07:52:00,66.0,64.0,29.88,SSW,193,0.0,0.0,94,0.00,,,0.09,,2013-09-12 11:52:00,
2013-09-12 08:12:00,66.0,64.0,29.88,SW,224,0.0,0.0,94,0.00,,,0.09,,2013-09-12 12:12:00,
2013-09-12 08:22:00,66.0,64.0,29.88,WSW,252,0.0,0.0,94,0.00,,,0.09,,2013-09-12 12:22:00,
2013-09-12 08:42:00,67.0,66.0,29.88,SSW,207,0.0,0.0,95,0.00,,,0.09,,2013-09-12 12:42:00,
2013-09-12 08:52:00,67.0,66.0,29.88,SSW,212,0.0,0.0,95,0.00,,,0.09,,2013-09-12 12:52:00,
2013-09-12 09:11:00,67.0,66.0,29.88,SSW,194,0.0,2.0,95,0.00,,,0.09,,2013-09-12 13:11:00,
2013-09-12 09:22:00,68.0,67.0,29.87,WSW,245,1.0,5.0,95,0.00,,,0.09,,2013-09-12 13:22:00,
2013-09-12 09:52:00,69.0,68.0,29.88,SW,229,1.0,3.0,95,0.00,,,0.09,,2013-09-12 13:52:00,
2013-09-12 10:11:00,69.0,67.0,29.88,SW,226,0.0,2.0,94,0.00,,,0.09,,2013-09-12 14:11:00,
2013-09-12 10:22:00,69.0,67.0,29.88,WSW,241,1.0,5.0,94,0.00,,,0.09,,2013-09-12 14:22:00,
2013-09-12 10:42:00,70.0,68.0,29.88,WSW,249,0.0,5.0,94,0.00,,,0.09,,2013-09-12 14:42:00,
2013-09-12 10:52:00,70.0,68.0,29.88,NW,305,0.0,3.0,92,0.00,,,0.09,,2013-09-12 14:52:00,
2013-09-12 11:11:00,70.0,67.0,29.88,WNW,300,1.0,3.0,91,0.00,,,0.09,,2013-09-12 15:11:00,
2013-09-12 11:22:00,71.0,68.0,29.88,WNW,302,1.0,3.0,91,0.00,,,0.09,,2013-09-12 15:22:00,
2013-09-12 11:43:00,71.0,68.0,29.88,SE,126,1.0,3.0,90,0.00,,,0.09,,2013-09-12 15:43:00,
2013-09-12 11:54:00,72.0,68.0,29.87,NW,309,2.0,6.0,86,0.00,,,0.09,,2013-09-12 15:54:00,
2013-09-12 12:13:00,72.0,67.0,29.88,NW,323,3.0,5.0,84,0.00,,,0.09,,2013-09-12 16:13:00,
2013-09-12 12:23:00,72.0,66.0,29.88,NNW,338,3.0,6.0,82,0.00,,,0.09,,2013-09-12 16:23:00,
2013-09-12 12:43:00,72.0,65.0,29.88,NNW,332,2.0,5.0,80,0.00,,,0.09,,2013-09-12 16:43:00,
2013-09-12 12:53:00,72.0,65.0,29.88,NNW,328,2.0,5.0,79,0.00,,,0.09,,2013-09-12 16:53:00,
2013-09-12 13:12:00,72.0,65.0,29.89,NW,313,1.0,4.0,79,0.00,,,0.09,,2013-09-12 17:12:00,
2013-09-12 13:23:00,72.0,64.0,29.89,NNW,330,2.0,4.0,75,0.00,,,0.09,,2013-09-12 17:23:00,
2013-09-12 13:42:00,72.0,62.0,29.89,NW,311,2.0,5.0,70,0.00,,,0.09,,2013-09-12 17:42:00,
2013-09-12 13:54:00,73.0,63.0,29.88,NE,39,1.0,3.0,70,0.00,,,0.09,,2013-09-12 17:54:00,
2013-09-12 14:12:00,74.0,63.0,29.87,WNW,300,1.0,3.0,68,0.00,,,0.09,,2013-09-12 18:12:00,
2013-09-12 14:22:00,76.0,62.0,29.87,NW,317,1.0,3.0,63,0.00,,,0.09,,2013-09-12 18:22:00,
2013-09-12 14:42:00,77.0,59.0,29.86,NNW,332,1.0,6.0,53,0.00,,,0.09,,2013-09-12 18:42:00,
2013-09-12 14:52:00,78.0,58.0,29.86,NNW,342,3.0,6.0,50,0.00,,,0.09,,2013-09-12 18:52:00,
2013-09-12 15:12:00,79.0,56.0,29.85,NW,323,3.0,5.0,45,0.00,,,0.09,,2013-09-12 19:12:00,
2013-09-12 15:22:00,79.0,58.0,29.84,NW,304,2.0,5.0,49,0.00,,,0.09,,2013-09-12 19:22:00,
2013-09-12 15:52:00,79.0,58.0,29.83,WNW,302,0.0,5.0,48,0.00,,,0.09,,2013-09-12 19:52:00,
2013-09-12 16:12:00,80.0,57.0,29.83,WNW,302,1.0,8.0,45,0.00,,,0.09,,2013-09-12 20:12:00,
2013-09-12 16:22:00,80.0,57.0,29.82,NW,308,3.0,5.0,46,0.00,,,0.09,,2013-09-12 20:22:00,
2013-09-12 16:42:00,80.0,55.0,29.82,NNW,335,3.0,7.0,43,0.00,,,0.09,,2013-09-12 20:42:00,
2013-09-12 16:52:00,80.0,56.0,29.82,North,9,3.0,6.0,44,0.00,,,0.09,,2013-09-12 20:52:00,
2013-09-12 17:11:00,80.0,57.0,29.81,NNW,330,3.0,5.0,45,0.00,,,0.09,,2013-09-12 21:11:00,
2013-09-12 17:22:00,80.0,56.0,29.81,NNW,345,3.0,6.0,44,0.00,,,0.09,,2013-09-12 21:22:00,
2013-09-12 17:43:00,80.0,56.0,29.80,NW,311,3.0,6.0,44,0.00,,,0.09,,2013-09-12 21:43:00,
2013-09-12 17:54:00,79.0,55.0,29.80,NW,325,3.0,8.0,44,0.00,,,0.09,,2013-09-12 21:54:00,
2013-09-12 18:13:00,79.0,55.0,29.80,NW,319,3.0,7.0,44,0.00,,,0.09,,2013-09-12 22:13:00,
2013-09-12 18:24:00,78.0,55.0,29.80,NW,315,3.0,5.0,45,0.00,,,0.09,,2013-09-12 22:24:00,
2013-09-12 18:43:00,77.0,55.0,29.80,NW,322,3.0,5.0,47,0.00,,,0.09,,2013-09-12 22:43:00,
2013-09-12 18:54:00,76.0,54.0,29.80,NW,326,3.0,6.0,47,0.00,,,0.09,,2013-09-12 22:54:00,
2013-09-12 19:12:00,75.0,56.0,29.81,NW,320,2.0,8.0,51,0.00,,,0.09,,2013-09-12 23:12:00,
2013-09-12 19:23:00,73.0,56.0,29.82,NW,324,2.0,4.0,55,0.00,,,0.09,,2013-09-12 23:23:00,
2013-09-12 19:42:00,72.0,56.0,29.83,NW,325,2.0,3.0,57,0.00,,,0.09,,2013-09-12 23:42:00,
2013-09-12 19:53:00,68.0,54.0,29.85,North,360,5.0,11.0,61,0.00,,,0.09,,2013-09-12 23:53:00,
2013-09-12 20:42:00,63.0,56.0,29.87,NW,315,1.0,3.0,78,0.00,,,0.09,,2013-09-13 00:42:00,
2013-09-12 20:52:00,63.0,56.0,29.88,NW,311,1.0,4.0,78,0.00,,,0.09,,2013-09-13 00:52:00,
2013-09-12 21:11:00,63.0,57.0,29.88,NW,318,1.0,3.0,80,0.00,,,0.09,,2013-09-13 01:11:00,
2013-09-12 21:22:00,63.0,56.0,29.89,North,357,2.0,7.0,78,0.00,,,0.09,,2013-09-13 01:22:00,
2013-09-12 21:42:00,63.0,56.0,29.90,NNW,342,3.0,7.0,78,0.00,,,0.09,,2013-09-13 01:42:00,
2013-09-12 21:53:00,62.0,55.0,29.90,NW,313,1.0,5.0,78,0.00,,,0.09,,2013-09-13 01:53:00,
2013-09-12 22:12:00,61.0,54.0,29.91,NNW,327,1.0,2.0,79,0.00,,,0.09,,2013-09-13 02:12:00,
2013-09-12 22:22:00,60.0,54.0,29.91,NNW,328,0.0,2.0,82,0.00,,,0.09,,2013-09-13 02:22:00,
2013-09-12 22:43:00,60.0,55.0,29.91,NW,326,1.0,3.0,83,0.00,,,0.09,,2013-09-13 02:43:00,
2013-09-12 22:53:00,60.0,54.0,29.91,NNW,337,2.0,5.0,82,0.00,,,0.09,,2013-09-13 02:53:00,
2013-09-12 23:12:00,59.0,53.0,29.92,NNW,348,3.0,6.0,80,0.00,,,0.09,,2013-09-13 03:12:00,
2013-09-12 23:22:00,59.0,52.0,29.92,North,352,3.0,6.0,78,0.00,,,0.09,,2013-09-13 03:22:00,
2013-09-12 23:55:00,58.0,52.0,29.93,North,349,1.0,3.0,80,0.00,,,0.09,,2013-09-13 03:55:00,